COSMOS 2474 (742)

Last updated on Nov. 12, 2019, 4:19 a.m. UTC

1 37829U 11055A   19315.38616823  .00000107  00000-0  00000+0 0  9994
2 37829  64.5290 154.5240 0008028 241.7355 121.6571  2.13101891 63113
UTC
Height (km)
Latitude
Longitude
Inclination
Orbital Period
UTC large
Height (km)
Speed (km/s)
/
Latitude / Longitude
Inclination (degrees)
Orbital Period (minutes)
Azimuth
Elevation
Range (km)
Doppler Factor
iOS Compass Heading
iOS Angle

Next 30 passes for location: Hong Kong

Rise time Rise Azimuth (degrees) Set time Set Azimuth (degrees) Duration Max altitude (degrees)

No matching passes for this satellites